KD7KCN-5 Weather Reports


time (UTC)temp
C
wind
direction
speed
KPH
gust
KPH
rain 1hr
cm
rain 24hr
cm
rain mn
cm
humidity
%
barometer
mb
20260502130158 10 327 14.5 22.5 0.00 0.00 0.00 30 1018.4
20260502123158 10 331 16.1 22.5 0.00 0.00 0.00 31 1018.4
20260502120158 10 329 14.5 20.9 0.00 0.00 0.00 29 1018.5
20260502115158 11 325 11.3 17.7 0.00 0.00 0.00 29 1018.5
20260502113159 10 333 3.2 17.7 0.00 0.00 0.00 29 1018.7
20260502112158 11 338 9.7 20.9 0.00 0.00 0.00 29 1018.7
20260502111158 11 274 9.7 22.5 0.00 0.00 0.00 29 1018.7
20260502110158 11 329 12.9 19.3 0.00 0.00 0.00 29 1018.6
20260502105158 11 262 11.3 19.3 0.00 0.00 0.00 28 1018.7
20260502104158 11 337 8.0 17.7 0.00 0.00 0.00 29 1018.7
20260502103158 11 290 11.3 20.9 0.00 0.00 0.00 29 1018.6
20260502102158 11 337 11.3 25.7 0.00 0.00 0.00 29 1018.6
20260502101158 11 338 4.8 24.1 0.00 0.00 0.00 28 1018.6
20260502100158 11 301 8.0 24.1 0.00 0.00 0.00 29 1018.5
20260502091158 11 344 4.8 17.7 0.00 0.00 0.00 27 1018.8
20260502090158 12 315 8.0 20.9 0.00 0.00 0.00 26 1018.8
20260502071158 11 286 4.8 17.7 0.00 0.00 0.00 28 1019.1
20260502070158 11 268 12.9 19.3 0.00 0.00 0.00 27 1019.0
20260502065158 11 332 4.8 20.9 0.00 0.00 0.00 27 1018.9
20260502064159 11 340 8.0 22.5 0.00 0.00 0.00 27 1018.9
20260502063159 11 268 14.5 25.7 0.00 0.00 0.00 27 1019.0
20260502062159 11 337 12.9 24.1 0.00 0.00 0.00 27 1018.9
20260502061159 11 331 11.3 22.5 0.00 0.00 0.00 27 1018.8
20260502060159 11 341 8.0 17.7 0.00 0.00 0.00 27 1018.6
20260502055159 11 355 9.7 19.3 0.00 0.00 0.00 26 1018.6
20260502054159 11 349 8.0 19.3 0.00 0.00 0.00 26 1018.6
20260502053159 11 4 14.5 27.4 0.00 0.00 0.00 25 1018.7
20260502052159 11 6 11.3 25.7 0.00 0.00 0.00 25 1018.7
20260502051159 12 7 16.1 22.5 0.00 0.00 0.00 24 1018.7
20260502050159 12 7 9.7 32.2 0.00 0.00 0.00 23 1018.6
20260502045159 12 22 17.7 29.0 0.00 0.00 0.00 23 1018.5
20260502044159 12 2 20.9 32.2 0.00 0.00 0.00 22 1018.4
20260502042159 13 17 17.7 25.7 0.00 0.00 0.00 22 1018.2
20260502040159 13 9 14.5 20.9 0.00 0.00 0.00 20 1018.0
20260502035159 13 349 8.0 16.1 0.00 0.00 0.00 20 1017.8
20260502034159 13 21 12.9 25.7 0.00 0.00 0.00 20 1017.6
20260502033159 13 7 12.9 24.1 0.00 0.00 0.00 20 1017.5
20260502032159 13 21 3.2 9.7 0.00 0.00 0.00 19 1017.3
20260502031159 14 23 4.8 16.1 0.00 0.00 0.00 19 1017.1
20260502030159 14 35 9.7 24.1 0.00 0.00 0.00 18 1017.0
20260502025159 14 64 14.5 24.1 0.00 0.00 0.00 18 1016.8
20260502024159 15 57 11.3 24.1 0.00 0.00 0.00 18 1016.7
20260502023159 15 33 11.3 22.5 0.00 0.00 0.00 18 1016.5
20260502022159 15 74 19.3 25.7 0.00 0.00 0.00 1016.3
20260502021159 15 57 12.9 25.7 0.00 0.00 0.00 17 1016.4
20260502020159 15 41 8.0 24.1 0.00 0.00 0.00 18 1016.2
20260502015159 16 54 17.7 25.7 0.00 0.00 0.00 18 1016.1
20260502014159 16 30 11.3 22.5 0.00 0.00 0.00 18 1015.9
20260502013159 16 24 16.1 27.4 0.00 0.00 0.00 19 1015.8
20260502012159 16 74 14.5 29.0 0.00 0.00 0.00 18 1015.7
20260502011159 17 79 17.7 37.0 0.00 0.00 0.00 18 1015.6
20260502010159 17 38 11.3 24.1 0.00 0.00 0.00 18 1015.6
20260502005159 17 60 22.5 37.0 0.00 0.00 0.00 17 1015.5
20260502004200 17 64 16.1 30.6 0.00 0.00 0.00 18 1015.3
20260502003200 17 31 14.5 33.8 0.00 0.00 0.00 18 1015.3
20260502002159 18 28 22.5 27.4 0.00 0.00 0.00 17 1015.2
20260502001200 18 66 16.1 22.5 0.00 0.00 0.00 15 1015.2
20260502000200 18 13 17.7 35.4 0.00 0.00 0.00 16 1015.4
20260501235200 18 49 14.5 25.7 0.00 0.00 0.00 16 1015.1
20260501232200 18 349 19.3 33.8 0.00 0.00 0.00 16 1014.9
20260501231200 18 40 24.1 35.4 0.00 0.00 0.00 16 1014.8
20260501230200 18 31 20.9 38.6 0.00 0.00 0.00 16 1014.8
20260501225201 19 352 19.3 35.4 0.00 0.00 0.00 17 1014.9
20260501224200 18 1 16.1 30.6 0.00 0.00 0.00 18 1015.0
20260501223200 20 8 20.9 29.0 0.00 0.00 0.00 17 1015.1
20260501222200 19 11 14.5 32.2 0.00 0.00 0.00 18 1015.1
20260501221201 18 35 24.1 38.6 0.00 0.00 0.00 17 1015.2
20260501220202 18 34 9.7 22.5 0.00 0.00 0.00 18 1015.3
20260501215202 18 4 22.5 38.6 0.00 0.00 0.00 17 1015.5
20260501214202 18 70 9.7 17.7 0.00 0.00 0.00 19 1015.5
20260501213200 18 359 6.4 27.4 0.00 0.00 0.00 20 1015.7
20260501210200 18 72 1.6 32.2 0.00 0.00 0.00 20 1015.9
20260501205200 18 47 16.1 38.6 0.00 0.00 0.00 20 1016.1
20260501204200 18 7 16.1 32.2 0.00 0.00 0.00 21 1016.1
20260501203200 18 351 17.7 37.0 0.00 0.00 0.00 21 1016.2
20260501201200 17 338 24.1 35.4 0.00 0.00 0.00 22 1016.1
20260501200201 17 51 16.1 25.7 0.00 0.00 0.00 21 1016.2
20260501195200 17 44 11.3 41.8 0.00 0.00 0.00 22 1016.3
20260501194200 18 13 20.9 32.2 0.00 0.00 0.00 21 1016.5
20260501192200 18 8 6.4 30.6 0.00 0.00 0.00 23 1016.6
20260501191200 17 3 14.5 33.8 0.00 0.00 0.00 24 1016.7
20260501190201 16 29 19.3 27.4 0.00 0.00 0.00 25 1016.8
20260501185201 16 27 27.4 38.6 0.00 0.00 0.00 25 1017.0
20260501183200 17 62 24.1 33.8 0.00 0.00 0.00 23 1017.0
20260501182200 16 56 19.3 33.8 0.00 0.00 0.00 23 1017.2
20260501181200 16 12 9.7 33.8 0.00 0.00 0.00 24 1017.2
20260501175201 16 44 17.7 33.8 0.00 0.00 0.00 25 1017.6
20260501174200 15 45 22.5 38.6 0.00 0.00 0.00 23 1017.7
20260501173200 16 18 30.6 43.5 0.00 0.00 0.00 24 1017.7
20260501172201 16 30 25.7 40.2 0.00 0.00 0.00 24 1017.8
20260501170200 16 17 16.1 35.4 0.00 0.00 0.00 26 1018.0
20260501165201 15 25 16.1 30.6 0.00 0.00 0.00 26 1018.0
20260501164202 16 15 20.9 32.2 0.00 0.00 0.00 26 1017.9
20260501163201 15 351 24.1 37.0 0.00 0.00 0.00 26 1018.0
20260501162200 14 28 17.7 32.2 0.00 0.00 0.00 28 1018.0
20260501161200 15 28 22.5 33.8 0.00 0.00 0.00 28 1018.0
20260501160201 14 12 27.4 37.0 0.00 0.00 0.00 27 1017.9
20260501155200 14 33 16.1 30.6 0.00 0.00 0.00 28 1017.9
20260501154201 14 357 9.7 32.2 0.00 0.00 0.00 29 1017.8
20260501153201 14 1 17.7 35.4 0.00 0.00 0.00 29 1018.0
20260501152201 13 1 17.7 30.6 0.00 0.00 0.00 30 1017.0
20260501151201 13 344 14.5 35.4 0.00 0.00 0.00 32 1016.9
20260501150201 12 346 22.5 32.2 0.00 0.00 0.00 30 1017.1
20260501145201 12 354 17.7 32.2 0.00 0.00 0.00 32 1016.9
20260501144201 12 345 17.7 32.2 0.00 0.00 0.00 31 1016.9